Location: Newark
(13.8117°N, 3.6025°W)
Time: 09:02:27
(UTC+00:00)

Explorer 11/Cluster Stage 4 - Pass Details

Date: 29 August 2019
Orbit: 467 x 1260 km, 28.8° (Epoch: 23 September)

Event Time Altitude Azimuth Distance (km) Brightness Sun altitude
Rises 04:48:15 0° 223° (SW) 2,867 - -18.5°
Reaches altitude 10° 04:50:30 10° 214° (SW) 2,068 - -17.9°
Exits shadow 04:51:49 18° 205° (SSW) 1,657 7.9 -17.6°
Maximum altitude 04:55:01 38° 146° (SE) 1,159 7.6 -16.9°
Drops below altitude 10° 05:00:35 10° 80° (E) 2,568 10.6 -15.6°
Sets 05:03:40 0° 73° (ENE) 3,658 11.9 -14.8°
